Weather History for Monument Pass, CO

Change the Weather History Date:

Saturday, February 8, 2014

  Actual Average (KAPA) Record (KAPA)
Temperature  
Mean Temperature 30 °F -  
Max Temperature 42 °F 42 °F 66 °F (2000)
Min Temperature 19 °F 18 °F -4 °F (2011)
Degree Days  
Heating Degree Days 34    
Moisture  
Dew Point 17 °F    
Average Humidity 54    
Maximum Humidity 80    
Minimum Humidity 42    
Precipitation  
Precipitation 0.00 in - - ()
Sea Level Pressure  
Sea Level Pressure 29.85 in    
Wind  
Wind Speed 11 mph (WSW)    
Max Wind Speed 18 mph    
Max Gust Speed 23 mph    
Visibility 10 miles    
Events      
Averages and records for this station are not official NWS values.
T = Trace of Precipitation, MM = Missing Value Source: NWS Daily Summary

Daily Weather History Graph

Daily Weather History Graph

Search for Another Location

Airport:

Trip Planner

Search our weather history database for the weather conditions in past years. The results will help you decide how hot, cold, wet, or windy it might be!

Date:

Astronomy

Feb. 08, 2014 Rise Set
Actual Time 6:58 AM MST 5:27 PM MST
Civil Twilight 6:30 AM MST 5:55 PM MST
Nautical Twilight 5:58 AM MST 6:27 PM MST
Astronomical Twilight 5:27 AM MST 6:58 PM MST
Moon 12:24 PM MST (2/8) 2:12 AM MST (2/8)
Length of Visible Light 11h 24m
Length of Day
10h 29m
Waxing Gibbous, 69% of the Moon is Illuminated
Feb 8
Waxing Gibbous
Feb 14
Full
Feb 22
Last Quarter
Mar 1
New
Mar 8
First Quarter

Hourly Weather History & Observations

Time (MST) Temp. Windchill Dew Point Humidity Pressure Visibility Wind Dir Wind Speed Gust Speed Precip Events Conditions
12:12 AM 26.6 °F 18.2 °F 8.6 °F 47% 29.82 in 10.0 mi SW 8.1 mph - N/A   Clear
12:32 AM 26.6 °F 16.8 °F 8.6 °F 47% 29.82 in 10.0 mi SW 10.4 mph - N/A   Clear
12:52 AM 24.8 °F 17.9 °F 8.6 °F 50% 29.82 in 10.0 mi SW 5.8 mph - N/A   Clear
1:12 AM 24.8 °F 14.6 °F 8.6 °F 50% 29.82 in 10.0 mi SW 10.4 mph - N/A   Clear
1:31 AM 24.8 °F 16.1 °F 8.6 °F 50% 29.82 in 10.0 mi SSW 8.1 mph - N/A   Clear
1:52 AM 21.2 °F 11.7 °F 8.6 °F 58% 29.82 in 10.0 mi SSW 8.1 mph - N/A   Clear
2:12 AM 19.4 °F 7.9 °F 8.6 °F 63% 29.81 in 10.0 mi South 10.4 mph - N/A   Clear
2:32 AM 21.2 °F 9.5 °F 10.4 °F 63% 29.81 in 10.0 mi South 11.5 mph - N/A   Clear
2:52 AM 21.2 °F 10.9 °F 8.6 °F 58% 29.81 in 10.0 mi SSW 9.2 mph - N/A   Clear
3:11 AM 19.4 °F 10.4 °F 8.6 °F 63% 29.81 in 10.0 mi South 6.9 mph - N/A   Clear
3:31 AM 23.0 °F 15.8 °F 8.6 °F 54% 29.80 in 10.0 mi South 5.8 mph - N/A   Clear
3:51 AM 23.0 °F 9.2 °F 10.4 °F 59% 29.79 in 10.0 mi SW 17.3 mph - N/A   Clear
4:10 AM 26.6 °F 14.3 °F 10.4 °F 51% 29.78 in 10.0 mi SW 16.1 mph - N/A   Clear
4:31 AM 28.4 °F 16.2 °F 12.2 °F 51% 29.78 in 10.0 mi WSW 17.3 mph - N/A   Clear
4:51 AM 28.4 °F 18.5 °F 10.4 °F 47% 29.78 in 10.0 mi SW 11.5 mph - N/A   Clear
5:11 AM 26.6 °F 18.2 °F 10.4 °F 51% 29.78 in 10.0 mi SW 8.1 mph - N/A   Clear
5:31 AM 26.6 °F 16.2 °F 10.4 °F 51% 29.78 in 10.0 mi SW 11.5 mph - N/A   Clear
5:51 AM 26.6 °F 15.2 °F 10.4 °F 51% 29.79 in 10.0 mi WSW 13.8 mph - N/A   Clear
6:11 AM 28.4 °F 18.5 °F 12.2 °F 51% 29.79 in 10.0 mi SW 11.5 mph - N/A   Clear
6:30 AM 28.4 °F 18.0 °F 14.0 °F 55% 29.79 in 10.0 mi SW 12.7 mph - N/A   Clear
6:51 AM 30.2 °F 20.2 °F 14.0 °F 51% 29.79 in 10.0 mi SW 12.7 mph - N/A   Clear
7:10 AM 30.2 °F 22.6 °F 14.0 °F 51% 29.81 in 10.0 mi SSW 8.1 mph - N/A   Clear
7:31 AM 30.2 °F 20.8 °F 14.0 °F 51% 29.80 in 10.0 mi SW 11.5 mph - N/A   Clear
7:51 AM 30.2 °F 19.3 °F 15.8 °F 55% 29.82 in 10.0 mi WSW 15.0 mph - N/A   Clear
8:11 AM 32.0 °F 23.0 °F 17.6 °F 55% 29.83 in 10.0 mi WSW 11.5 mph - N/A   Clear
8:31 AM 32.0 °F 21.6 °F 17.6 °F 55% 29.82 in 10.0 mi WSW 15.0 mph - N/A   Scattered Clouds
8:50 AM 32.0 °F 20.5 °F 19.4 °F 60% 29.83 in 10.0 mi WSW 18.4 mph - N/A   Scattered Clouds
9:11 AM 32.0 °F 21.6 °F 19.4 °F 60% 29.85 in 10.0 mi WSW 15.0 mph - N/A   Clear
9:31 AM 35.6 °F 25.5 °F 19.4 °F 52% 29.84 in 10.0 mi WSW 17.3 mph 23.0 mph N/A   Clear
9:51 AM 37.4 °F 28.2 °F 21.2 °F 52% 29.85 in 10.0 mi WSW 16.1 mph 19.6 mph N/A   Clear
10:11 AM 37.4 °F 28.2 °F 21.2 °F 52% 29.85 in 10.0 mi WSW 16.1 mph - N/A   Clear
10:31 AM 39.2 °F 30.8 °F 21.2 °F 49% 29.86 in 10.0 mi West 15.0 mph - N/A   Clear
10:51 AM 39.2 °F 31.2 °F 21.2 °F 49% 29.85 in 10.0 mi WSW 13.8 mph - N/A   Clear
11:11 AM 41.0 °F 34.3 °F 23.0 °F 49% 29.85 in 10.0 mi WSW 11.5 mph - N/A   Clear
11:31 AM 41.0 °F 35.8 °F 23.0 °F 49% 29.84 in 10.0 mi WSW 8.1 mph - N/A   Clear
11:51 AM 42.8 °F 36.2 °F 21.2 °F 42% 29.84 in 10.0 mi West 12.7 mph - N/A   Clear
12:11 PM 42.8 °F 36.6 °F 23.0 °F 46% 29.84 in 10.0 mi West 11.5 mph - N/A   Clear
12:31 PM 42.8 °F 36.2 °F 23.0 °F 46% 29.83 in 10.0 mi WSW 12.7 mph - N/A   Scattered Clouds
12:51 PM 42.8 °F 36.6 °F 23.0 °F 46% 29.82 in 10.0 mi West 11.5 mph - N/A   Clear
1:11 PM 42.8 °F 35.1 °F 21.2 °F 42% 29.82 in 10.0 mi West 16.1 mph 20.7 mph N/A   Clear
1:31 PM 42.8 °F 36.2 °F 21.2 °F 42% 29.82 in 10.0 mi West 12.7 mph - N/A   Clear
1:50 PM 42.8 °F 35.8 °F 23.0 °F 46% 29.82 in 10.0 mi West 13.8 mph 19.6 mph N/A   Clear
2:10 PM 42.8 °F 35.1 °F 21.2 °F 42% 29.83 in 10.0 mi WNW 16.1 mph 23.0 mph N/A   Clear
2:30 PM 41.0 °F 33.1 °F 21.2 °F 45% 29.84 in 10.0 mi WNW 15.0 mph - N/A   Clear
2:51 PM 41.0 °F 33.9 °F 23.0 °F 49% 29.85 in 10.0 mi West 12.7 mph - N/A   Clear
3:10 PM 41.0 °F 32.5 °F 23.0 °F 49% 29.85 in 10.0 mi West 17.3 mph - N/A   Clear
3:31 PM 41.0 °F 33.1 °F 23.0 °F 49% 29.84 in 10.0 mi West 15.0 mph - N/A   Clear
3:51 PM 41.0 °F 33.9 °F 21.2 °F 45% 29.84 in 10.0 mi West 12.7 mph - N/A   Clear
4:11 PM 41.0 °F 36.4 °F 23.0 °F 49% 29.86 in 10.0 mi West 6.9 mph - N/A   Clear
4:31 PM 41.0 °F 35.8 °F 21.2 °F 45% 29.86 in 10.0 mi West 8.1 mph - N/A   Clear
4:51 PM 37.4 °F 32.8 °F 21.2 °F 52% 29.87 in 10.0 mi WSW 5.8 mph - N/A   Clear
5:11 PM 33.8 °F 25.3 °F 21.2 °F 60% 29.87 in 10.0 mi WSW 11.5 mph - N/A   Clear
5:31 PM 33.8 °F 23.9 °F 21.2 °F 60% 29.87 in 10.0 mi WSW 15.0 mph - N/A   Clear
5:50 PM 35.6 °F 26.2 °F 21.2 °F 56% 29.89 in 10.0 mi WSW 15.0 mph - N/A   Clear
6:11 PM 33.8 °F 25.3 °F 21.2 °F 60% 29.89 in 10.0 mi WSW 11.5 mph - N/A   Clear
6:30 PM 33.8 °F 26.4 °F 21.2 °F 60% 29.91 in 10.0 mi WSW 9.2 mph - N/A   Clear
6:51 PM 32.0 °F 25.6 °F 21.2 °F 64% 29.91 in 10.0 mi WSW 6.9 mph - N/A   Clear
7:11 PM 33.8 °F 27.7 °F 19.4 °F 56% 29.91 in 10.0 mi WSW 6.9 mph - N/A   Clear
7:31 PM 33.8 °F 29.6 °F 19.4 °F 56% 29.91 in 10.0 mi SW 4.6 mph - N/A   Clear
7:51 PM 33.8 °F 30.8 °F 19.4 °F 56% 29.92 in 10.0 mi WSW 3.5 mph - N/A   Clear
8:11 PM 32.0 °F 25.6 °F 19.4 °F 60% 29.92 in 10.0 mi WSW 6.9 mph - N/A   Clear
8:31 PM 32.0 °F 24.2 °F 19.4 °F 60% 29.93 in 10.0 mi West 9.2 mph - N/A   Clear
8:51 PM 32.0 °F 24.2 °F 19.4 °F 60% 29.93 in 10.0 mi WSW 9.2 mph - N/A   Clear
9:11 PM 33.8 °F 26.4 °F 19.4 °F 56% 29.93 in 10.0 mi SW 9.2 mph - N/A   Clear
9:31 PM 33.8 °F 26.4 °F 19.4 °F 56% 29.94 in 10.0 mi SW 9.2 mph - N/A   Clear
9:50 PM 33.8 °F 27.7 °F 19.4 °F 56% 29.94 in 10.0 mi WSW 6.9 mph - N/A   Clear
10:10 PM 32.0 °F 25.6 °F 19.4 °F 60% 29.93 in 10.0 mi West 6.9 mph - N/A   Clear
10:31 PM 32.0 °F 26.4 °F 19.4 °F 60% 29.94 in 10.0 mi West 5.8 mph - N/A   Clear
10:51 PM 30.2 °F 23.4 °F 19.4 °F 64% 29.93 in 10.0 mi West 6.9 mph - N/A   Clear
11:11 PM 30.2 °F 25.4 °F 19.4 °F 64% 29.93 in 10.0 mi SW 4.6 mph - N/A   Clear
11:31 PM 32.0 °F 25.6 °F 21.2 °F 64% 29.92 in 10.0 mi WSW 6.9 mph - N/A   Clear
11:51 PM 26.6 °F 15.2 °F 21.2 °F 80% 29.93 in 10.0 mi WNW 13.8 mph 21.9 mph N/A   Clear